INMARSAT 5-F2

Last updated on Sun Jun 21 2026 00:03:06 GMT+0000 (Coordinated Universal Time)

1 40384U 15005A 26170.80183425 -.00000291 00000+0 00000+0 0 9998 2 40384 0.0179 15.3201 0000595 285.6188 200.7370 1.00269517 41024
UTC large
Height (km)
Speed (km/s)
/
Latitude / Longitude
Inclination (degrees)
Orbital Period (minutes)
Azimuth
Elevation
Range (km)
Doppler Factor

Next 0 passes for location: London (51.5072 / 0.1276)

No passes found over London.
INMARSAT 5-F2